Wind_Speed
8 1 14 18 12 18 22 22 18 13 10 14 15 15 16 16 12 11 11 10 8 8 7 12 11 10 9 9 10 11 13 15 17 20 21 22 26 28 30 31 30 31 31 30
8 5 9 2 6 14 6 5 12 7 13 18 16 13 14 16 14 14 11 10 11 8 10 10 7 6 7 10 11 12 13 16 14 17 23 25 28 29 29 26 29 32 29 26
10 4 3 10 9 8 4 5 8 11 6 14 15 19 18 12 15 12 13 11 9 8 9 9 11 12 12 10 11 13 13 13 19 22 23 25 26 25 25 29 31 30 29 29
3 5 6 2 4 7 11 9 9 4 12 22 19 9 10 10 14 13 11 10 8 10 13 16 14 12 9 10 12 13 15 17 19 22 22 22 21 24 27 27 29 29 29 29
4 6 6 4 4 7 8 10 15 9 10 14 17 12 5 10 11 12 8 8 12 16 19 15 12 10 10 11 13 16 17 19 21 21 21 24 25 26 27 28 26 25 27 30
3 5 9 0 4 7 7 9 5 13 18 20 17 10 4 7 10 10 15 16 17 18 15 15 12 11 13 13 14 16 18 19 19 20 21 21 23 25 23 25 26 27 28 25
3 3 6 6 3 5 8 4 2 19 22 19 12 4 12 11 10 14 16 19 19 17 16 12 12 14 12 7 10 13 14 15 18 19 20 21 23 23 24 24 26 26 25 27
3 2 9 8 3 12 5 4 10 18 17 15 18 20 16 15 13 14 16 16 17 16 13 12 11 10 8 8 11 15 15 16 18 21 21 20 21 24 24 22 21 22 21 23
8 6 2 3 3 5 8 16 12 23 21 24 21 19 17 14 14 12 16 15 14 14 12 9 7 8 7 9 11 13 16 18 19 20 20 22 22 23 23 20 18 19 17 22
3 5 4 5 6 6 13 16 15 18 20 20 20 16 14 13 11 10 14 14 14 13 10 6 6 6 6 7 10 14 15 17 17 18 20 20 23 20 20 19 19 19 20 23
3 3 6 5 11 13 13 16 17 15 17 17 16 14 13 11 10 12 14 14 12 11 7 4 2 2 5 7 9 11 14 15 17 18 18 21 20 20 21 21 21 22 22 23
7 8 6 11 11 16 18 16 16 18 13 11 13 12 12 10 13 14 14 12 10 8 6 5 2 2 4 6 8 9 13 16 17 19 20 19 20 21 24 22 24 23 22 25
5 10 7 15 15 15 18 15 14 15 14 13 9 13 13 9 12 16 14 11 10 9 8 5 3 2 5 8 9 8 12 16 18 20 20 18 20 20 19 25 26 23 22 24
9 9 9 17 12 15 17 13 15 14 15 14 13 18 18 13 15 17 15 13 12 10 8 7 7 6 4 8 8 9 12 14 19 22 23 23 21 22 20 21 21 23 26 25
12 8 9 12 14 14 14 15 14 12 10 9 16 15 17 12 12 17 16 15 12 10 10 10 10 10 7 8 11 13 15 16 18 23 22 23 21 20 21 22 21 21 22 23
10 13 18 19 16 16 16 14 12 10 10 7 7 13 19 23 22 20 18 18 16 16 13 11 11 11 10 11 12 13 14 15 17 21 21 22 21 19 20 22 21 20 19 21
15 11 15 15 16 15 13 13 12 10 7 7 10 19 20 20 18 18 19 20 20 18 16 16 17 15 13 14 13 13 15 14 18 20 20 22 22 20 21 21 20 21 20 24
12 13 15 16 14 11 10 10 10 9 7 13 13 16 16 16 11 20 22 22 22 21 21 25 21 18 20 18 15 15 15 15 18 19 20 22 23 24 23 22 21 22 22 23
10 11 11 12 11 9 9 8 9 17 16 18 19 16 20 22 23 23 22 20 22 22 28 26 22 20 21 20 19 18 17 16 18 18 19 21 22 24 23 22 22 23 23 23
8 9 8 8 15 11 8 10 14 13 11 12 10 7 8 14 18 21 20 22 26 27 24 22 22 21 22 24 23 20 18 16 16 17 18 20 22 23 24 23 24 24 24 21
9 9 9 9 9 15 17 16 16 12 8 7 10 10 11 11 10 10 10 8 21 21 22 22 22 25 27 25 23 20 15 15 15 16 17 19 22 23 23 22 23 23 24 23
8 9 9 9 10 11 11 13 12 10 8 6 4 1 2 4 7 11 14 17 21 21 22 24 25 23 22 17 17 12 12 15 15 16 18 19 21 22 23 22 22 24 25 26
9 9 11 9 7 11 9 9 10 9 7 5 4 4 5 6 8 8 5 10 8 9 10 8 6 4 5 6 9 13 15 16 16 17 18 20 20 23 24 24 23 25 25 26
11 11 10 11 15 15 6 8 10 11 12 10 7 5 5 5 5 2 8 10 11 12 12 13 13 13 13 13 15 16 17 16 17 19 20 19 24 24 24 24 24 25 25 26
13 13 11 12 6 4 14 15 14 11 9 7 6 4 3 4 3 7 9 12 13 13 13 12 13 13 15 16 16 17 17 19 18 16 20 22 24 24 25 24 25 26 25 25
8 7 11 10 12 17 16 13 10 8 5 5 2 2 4 5 8 11 13 12 12 14 16 18 18 18 18 20 20 19 21 22 20 20 18 19 23 26 27 25 22 24 23 25
10 12 12 10 12 14 14 12 10 7 6 6 5 4 7 11 10 11 15 16 14 15 17 17 18 19 22 23 23 22 22 21 21 19 21 23 22 25 25 19 19 23 28 28
Wind_Direction
199 321 200 203 200 197 206 214 212 213 201 187 184 172 164 158 154 139 133 134 129 116 120 104 87 72 39 22 22 16 11 7 356 346 344 340 337 335 332 329 330 331 331 328
184 131 55 15 219 219 183 167 215 174 224 175 177 138 155 162 150 145 144 122 124 122 108 98 81 70 48 41 26 16 2 352 360 346 338 337 334 330 329 328 326 327 325 323
200 119 42 278 200 191 178 172 173 198 192 173 160 160 169 155 150 141 130 130 123 119 114 94 79 78 62 39 17 10 15 6 349 345 339 332 325 324 322 321 323 323 320 317
143 108 205 303 183 178 209 222 206 201 209 166 162 132 128 134 128 130 132 128 118 113 100 92 78 65 50 40 34 20 4 358 347 339 330 330 328 326 321 322 319 320 324 319
171 194 318 212 187 160 167 238 225 191 172 159 131 100 81 132 132 129 123 114 111 103 104 90 76 69 52 35 24 13 3 348 343 337 329 328 322 322 325 323 325 326 324 317
151 183 216 45 220 149 96 253 200 149 151 147 152 164 160 143 125 112 108 112 110 110 99 84 66 47 34 31 18 4 354 339 332 330 322 318 318 317 313 319 318 321 318 319
155 215 282 240 155 132 166 213 116 160 155 155 168 145 142 130 112 114 116 118 120 108 96 78 48 32 26 28 4 348 332 325 322 327 328 325 317 325 325 318 317 316 314 315
134 155 260 188 171 181 165 52 119 146 149 121 115 123 130 131 136 134 132 131 120 101 83 64 49 41 28 353 338 332 325 321 323 328 331 323 323 327 327 320 309 310 310 312
188 203 217 187 166 114 146 135 131 122 130 131 134 140 143 142 138 136 131 120 111 101 93 79 53 22 8 346 340 333 328 327 323 322 324 333 333 325 319 318 314 312 311 315
109 213 205 121 96 108 141 128 127 123 129 134 137 140 135 133 135 132 133 130 119 109 107 94 46 34 7 351 345 341 337 331 331 327 327 331 331 325 316 318 319 317 316 316
248 233 91 143 145 138 128 125 122 124 131 134 132 137 135 135 138 139 132 121 115 113 107 88 65 20 7 3 353 347 344 345 341 337 337 332 328 321 318 321 322 308 307 307
208 184 154 174 154 147 137 138 135 129 129 135 134 137 135 136 141 136 130 130 127 131 141 164 199 355 360 352 351 346 341 335 335 341 330 329 327 319 325 321 321 316 314 315
171 164 147 153 148 147 137 139 138 134 136 136 132 135 132 135 144 144 140 149 160 172 178 187 216 296 348 350 350 339 322 330 339 338 333 326 323 313 311 320 325 318 319 324
148 110 115 150 153 147 140 140 133 132 135 139 143 140 141 139 148 155 166 178 180 184 196 215 242 271 320 338 330 323 319 334 344 336 332 316 316 321 311 308 310 314 321 324
151 143 145 138 136 140 133 131 131 139 143 141 151 148 148 149 158 180 179 181 186 201 218 233 251 273 278 299 311 308 313 321 330 333 328 329 326 326 318 308 305 310 313 317
119 123 134 137 139 137 138 140 140 152 155 150 155 159 169 177 184 186 186 189 189 213 225 237 261 288 289 270 297 305 312 307 317 325 326 329 324 324 320 315 309 309 311 311
117 127 135 133 142 146 157 158 159 163 160 165 179 183 175 179 185 192 199 208 220 233 242 250 261 276 282 270 279 294 298 292 316 323 328 328 323 312 311 311 305 305 302 314
143 151 151 145 148 152 154 159 158 157 163 171 169 172 173 172 195 209 218 217 218 233 250 261 259 270 282 271 262 276 274 282 313 319 322 324 323 317 313 304 307 306 299 309
135 134 131 135 149 151 149 157 166 178 181 167 160 172 189 201 213 223 229 215 220 230 248 264 273 269 266 260 252 261 261 278 304 311 318 320 321 319 313 310 307 311 301 297
114 127 127 120 135 133 126 138 146 145 161 168 178 183 208 229 237 240 238 224 233 250 274 281 284 281 266 264 246 250 255 279 300 305 312 314 315 316 314 312 309 310 305 292
130 122 118 109 92 99 118 132 130 120 129 164 182 207 229 260 282 279 267 258 281 291 293 291 284 277 272 267 245 238 261 287 295 298 304 308 313 315 315 314 308 308 312 298
113 107 108 109 112 104 98 105 109 104 101 101 107 127 285 307 311 298 287 270 294 296 292 290 288 282 265 246 228 253 281 295 295 296 298 304 309 312 313 312 308 305 307 309
113 114 114 115 123 124 127 132 136 136 132 116 69 32 7 341 320 297 305 337 330 319 309 308 290 239 224 274 281 290 294 290 292 295 296 301 304 311 313 313 309 309 299 315
117 117 122 127 132 128 117 130 125 117 111 95 75 54 29 27 67 70 340 340 339 343 340 333 327 320 311 301 296 291 285 285 295 302 305 302 307 306 309 309 310 309 307 308
126 134 141 140 125 129 135 131 123 123 113 102 101 82 50 353 332 322 326 324 321 317 312 313 308 299 297 295 291 290 291 295 292 294 301 300 302 300 308 304 310 312 307 308
126 132 145 147 150 155 157 156 144 141 133 137 165 287 294 298 301 304 309 309 307 307 308 311 312 311 308 303 296 293 296 293 288 294 294 302 306 304 302 300 305 312 308 310
112 125 123 115 140 155 161 162 161 178 186 199 217 244 291 301 288 291 306 308 312 314 313 313 314 314 311 305 298 296 294 289 289 286 296 297 298 302 299 292 301 305 309 307
Height
687 684 682 686 694 695 698 702 720 717 724 726 726 731 737 741 749 754 760 764 768 774 777 779 781 783 783 784 785 786 786 785 784 783 781 778 774 772 769 767 764 761 757 754
696 691 702 704 696 691 703 705 705 708 708 706 714 728 738 739 746 752 758 763 768 772 774 777 779 782 784 785 785 785 784 782 781 778 776 775 773 770 766 763 758 756 754 750
695 697 705 707 699 700 697 694 696 709 704 701 718 722 731 740 743 751 758 762 766 769 773 777 780 781 783 785 784 782 781 780 779 776 774 773 771 766 762 760 756 752 748 746
712 713 709 678 673 678 686 685 691 695 695 697 713 724 731 739 746 754 759 762 766 770 774 778 780 782 784 783 783 782 781 779 777 775 772 769 766 764 760 755 752 748 744 741
702 701 696 681 680 683 686 688 680 690 691 697 714 731 745 743 747 752 758 763 767 771 775 780 782 783 783 782 780 777 778 778 777 775 771 767 762 758 756 754 749 745 742 737
709 698 690 679 672 669 673 688 678 681 689 706 711 727 748 748 750 755 760 765 769 774 778 778 778 778 777 776 778 780 779 778 776 774 770 765 762 757 752 748 745 741 737 733
704 702 699 677 670 669 693 684 680 678 685 702 708 718 735 745 752 756 761 766 770 772 772 773 772 771 774 778 779 779 778 775 772 769 766 762 759 754 748 745 742 737 733 729
708 707 693 669 673 674 680 687 684 683 691 709 717 726 735 743 751 755 760 765 765 765 766 768 770 772 776 777 777 777 776 773 769 766 762 759 754 751 747 742 738 733 729 725
682 676 666 664 667 674 675 682 691 689 700 705 718 728 734 741 747 752 756 760 762 763 767 771 773 774 774 775 773 773 771 769 765 761 759 756 751 748 745 740 735 730 726 722
678 668 667 672 676 677 680 683 689 693 700 710 719 728 735 742 748 752 755 758 760 762 767 769 770 771 773 773 771 770 768 764 762 758 755 748 747 745 744 738 733 728 724 719
675 666 670 673 673 680 688 688 692 699 703 711 718 726 732 740 747 751 753 755 757 760 765 769 770 771 771 769 768 767 765 761 759 756 750 747 743 742 740 735 731 726 722 717
655 655 659 668 675 679 685 690 694 698 708 714 716 722 729 736 742 745 750 753 757 761 763 767 769 768 767 766 765 763 761 760 756 749 746 745 741 737 735 730 726 722 718 713
647 648 654 662 670 677 684 691 695 699 705 712 718 721 726 734 739 744 748 753 755 759 762 763 765 766 765 763 762 761 759 757 752 748 745 743 739 734 727 723 720 716 712 708
640 650 661 661 671 677 683 691 696 702 707 712 717 722 726 731 737 743 747 751 754 755 759 761 762 761 761 760 759 758 756 752 750 749 744 741 736 731 726 722 717 711 706 703
641 644 653 662 671 678 684 691 699 705 710 715 720 723 728 731 734 738 744 748 751 754 756 757 757 756 757 756 756 755 751 746 746 744 741 738 733 729 724 720 715 710 704 699
644 648 653 661 672 678 686 693 700 707 710 714 718 722 725 728 732 735 739 743 746 749 750 751 751 751 752 752 751 749 746 747 745 742 737 733 729 726 722 718 713 708 703 698
653 659 661 666 673 681 687 691 696 702 709 713 717 720 723 727 730 732 734 738 741 744 744 744 743 745 745 745 745 743 743 743 740 737 732 729 726 723 719 715 710 705 700 695
646 652 655 662 673 682 689 693 696 701 705 709 714 718 721 724 726 727 730 732 736 737 737 736 738 738 738 738 738 738 739 737 735 731 728 725 722 719 716 712 707 702 696 692
651 658 661 667 673 682 686 692 694 696 702 707 711 714 716 719 721 722 724 727 729 730 728 728 729 730 729 730 732 733 732 731 729 726 723 721 718 716 712 708 703 699 693 689
657 660 663 669 675 680 687 691 694 698 701 705 709 713 716 717 718 720 721 721 721 720 721 722 722 722 722 723 725 726 726 725 723 720 718 716 714 712 708 705 700 695 690 685
660 663 668 674 681 685 690 692 695 700 703 706 709 711 714 716 718 717 717 717 716 717 716 715 714 714 715 716 718 719 719 718 716 715 713 711 710 707 704 701 696 692 687 681
663 668 674 678 682 688 691 693 696 700 703 706 708 711 712 712 712 712 712 712 710 710 709 709 708 709 709 710 712 712 712 712 710 709 707 706 704 702 699 696 693 688 683 678
667 671 676 681 684 689 693 696 699 700 701 703 705 706 708 709 709 709 709 709 707 706 706 706 705 705 706 707 707 707 706 705 704 703 702 701 699 697 694 691 688 684 680 675
672 676 681 683 685 690 694 696 697 699 700 703 704 706 706 708 708 708 708 708 708 707 707 706 705 704 704 703 702 702 701 700 698 697 695 694 693 691 688 686 683 680 676 672
671 676 680 683 686 690 693 696 698 700 701 703 704 706 707 707 708 708 707 707 706 705 704 703 702 701 700 699 697 696 695 693 692 691 690 688 686 684 682 680 678 674 671 667
673 677 679 682 686 689 693 695 697 699 700 702 704 705 705 706 706 705 704 703 702 701 699 698 697 695 694 693 691 690 688 687 685 684 683 681 679 677 675 673 671 669 666 663
675 677 681 685 687 689 692 694 696 698 699 701 702 702 703 702 701 701 699 698 696 694 693 692 691 689 688 686 684 682 680 679 678 676 675 674 672 670 668 666 664 662 660 657